Tracking 29033 objects as of 22-Jun-2024
HD Live streaming from Space Station
objects crossing your sky now

SL-24 R/B

Track SL-24 R/B now!
10-day predictions


NORAD ID: 40541
Int'l Code: 2015-014C
Perigee: 530.0 km
Apogee: 1,437.0 km
Inclination: 97.4 °
Period: 104.6 minutes
Semi major axis: 7354 km
RCS: Unknown
Launch date: March 25, 2015
Source: Commonwealth of Independent States (former USSR) (CIS)
Launch site: Orenburg, Russia (OREN)

Note: This is a ROCKET BODY
Your satellite tracking list
Your tracking list is empty




NASA's NSSDC Master Catalog

Two Line Element Set (TLE):
1 40541U 15014C   24173.90830921  .00000516  00000-0  13278-3 0  9990
2 40541  97.3599 135.5277 0616607 118.8635 247.5833 13.76485868463951
Source of the keplerian elements: AFSPC